Weather History for KAMA - August, 2014

Change the Weather History Date:

Tuesday, August 26, 2014

  Actual Average Record
Temperature  
Mean Temperature 78 °F 76 °F  
Max Temperature 89 °F 88 °F 100 °F (1952)
Min Temperature 66 °F 63 °F 48 °F (2010)
Degree Days  
Heating Degree Days 0 0  
Month to date heating degree days 0 0  
Since 1 June heating degree days 4 7  
Since 1 July heating degree days 0 0  
Cooling Degree Days 13 11  
Month to date cooling degree days 376 316  
Year to date cooling degree days 1254 1141  
Since 1 June cooling degree days 1057 1016  
Growing Degree Days 28 (Base 50)    
Moisture  
Dew Point 61 °F    
Average Humidity 62    
Maximum Humidity 87    
Minimum Humidity 37    
Precipitation  
Precipitation 0.10 in 0.08 in 3.58 in (1979)
Month to date precipitation 1.75 2.53  
Year to date precipitation 13.68 14.89  
Snow  
Snow 0.00 in 0.00 in T in (2005)
Month to date snowfall 0.0 0.0  
Since 1 June snowfall 0.0 0.0  
Since 1 July snowfall 0.0 0.0  
Snow Depth 0.00 in    
Sea Level Pressure  
Sea Level Pressure 30.02 in    
Wind  
Wind Speed 12 mph (SSE)    
Max Wind Speed 23 mph    
Max Gust Speed 31 mph    
Visibility 10 miles    
Events Rain , Thunderstorm    
T = Trace of Precipitation, MM = Missing Value Source: NWS Daily Summary

Daily Weather History Graph

Daily Weather History Graph

Search for Another Location

Airport or City:

Trip Planner

Search our weather history database for the weather conditions in past years. The results will help you decide how hot, cold, wet, or windy it might be!

Date:

Astronomy

Aug. 26, 2014 Rise Set
Actual Time 7:14 AM CDT 8:21 PM CDT
Civil Twilight 6:48 AM CDT 8:47 PM CDT
Nautical Twilight 6:17 AM CDT 9:19 PM CDT
Astronomical Twilight 5:45 AM CDT 9:51 PM CDT
Moon 8:13 AM CDT (8/26) 8:49 PM CDT (8/26)
Length of Visible Light 13h 59m
Length of Day
13h 06m
New Moon, 1% of the Moon is Illuminated
Aug 26
New Moon
Sep 2
First Quarter
Sep 8
Full
Sep 15
Last Quarter
Sep 24
New

Hourly Weather History & Observations

Time (CDT) Temp. Heat Index Dew Point Humidity Pressure Visibility Wind Dir Wind Speed Gust Speed Precip Events Conditions
12:24 AM 71.1 °F - 59.0 °F 66% 30.13 in 10.0 mi SSE 5.8 mph - N/A Thunderstorm Thunderstorm
12:39 AM 70.0 °F - 60.1 °F 71% 30.13 in 10.0 mi ESE 6.9 mph - N/A Thunderstorm Clear
12:53 AM 69.1 °F - 60.1 °F 73% 29.95 in 10.0 mi SE 4.6 mph - N/A Thunderstorm Clear
1:03 AM 70.0 °F - 59.0 °F 68% 30.12 in 10.0 mi SE 5.8 mph - N/A   Clear
1:53 AM 66.9 °F - 60.1 °F 79% 29.95 in 10.0 mi SW 6.9 mph - N/A   Clear
2:53 AM 71.1 °F - 57.9 °F 63% 29.94 in 10.0 mi South 3.5 mph - N/A   Scattered Clouds
3:53 AM 69.8 °F - 60.8 °F 73% 30.14 in 10.0 mi East 13.8 mph - N/A   Partly Cloudy
4:53 AM 66.9 °F - 63.0 °F 87% 29.98 in 10.0 mi SE 11.5 mph - N/A   Overcast
5:53 AM 66.9 °F - 62.1 °F 84% 30.02 in 10.0 mi WSW 6.9 mph - N/A   Overcast
6:53 AM 68.0 °F - 60.8 °F 78% 30.17 in 10.0 mi SSW 13.8 mph - N/A   Overcast
7:53 AM 66.9 °F - 61.0 °F 81% 30.03 in 7.0 mi South 10.4 mph - 0.01 in Rain Rain
8:53 AM 70.0 °F - 60.1 °F 71% 30.04 in 10.0 mi South 9.2 mph - 0.08 in Rain Light Rain
9:53 AM 71.6 °F - 60.8 °F 69% 30.17 in 10.0 mi South 13.8 mph - N/A   Mostly Cloudy
10:53 AM 81.0 °F 82.2 °F 63.0 °F 54% 30.01 in 10.0 mi South 17.3 mph - N/A   Clear
11:53 AM 78.1 °F - 62.1 °F 58% 30.04 in 10.0 mi South 11.5 mph - N/A   Mostly Cloudy
12:53 PM 81.0 °F 81.3 °F 59.0 °F 47% 30.04 in 10.0 mi South 11.5 mph - N/A   Clear
1:53 PM 84.9 °F 84.8 °F 60.1 °F 43% 30.02 in 10.0 mi SSE 15.0 mph - N/A   Scattered Clouds
2:53 PM 87.1 °F 87.5 °F 62.1 °F 43% 29.98 in 10.0 mi SSE 15.0 mph 24.2 mph N/A   Clear
3:53 PM 89.1 °F 88.8 °F 60.1 °F 38% 29.96 in 10.0 mi SSE 17.3 mph 26.5 mph N/A   Clear
4:53 PM 86.0 °F 85.0 °F 57.9 °F 38% 29.95 in 10.0 mi SE 21.9 mph - N/A   Clear
5:53 PM 86.0 °F 85.4 °F 59.0 °F 40% 29.96 in 10.0 mi South 18.4 mph - N/A   Mostly Cloudy
6:53 PM 81.0 °F 81.9 °F 62.1 °F 52% 29.96 in 10.0 mi SE 9.2 mph - N/A   Partly Cloudy
7:53 PM 79.0 °F - 62.1 °F 56% 29.97 in 10.0 mi ESE 4.6 mph - N/A   Scattered Clouds
8:53 PM 78.8 °F - 62.6 °F 57% 30.13 in 10.0 mi ESE 6.9 mph - N/A   Mostly Cloudy
9:53 PM 77.0 °F - 62.1 °F 60% 29.99 in 10.0 mi ESE 10.4 mph - N/A   Overcast
10:53 PM 75.0 °F - 63.0 °F 66% 29.99 in 10.0 mi SE 6.9 mph - N/A   Partly Cloudy
11:53 PM 75.9 °F - 62.1 °F 62% 29.99 in 10.0 mi SE 8.1 mph - N/A   Mostly Cloudy